Home > Time Zones > World Clock > Weather > Japan > Osaka > Past weeks

Flag for Japan Weather past 2 weeks in Osaka, Japan

Now
50 °F

Partly cloudy.


Feels Like: 46 °F
Forecast: 44 / 59 °F
Wind: 10 mph from Northeast

Location: Kansai International Airport


UV Index: 5 (Moderate)

Visibility: N/A


Pressure: 30.12 "Hg

Humidity: 67%

Dew point: 39 °F

Location of OsakaLocation

Historic Weather in Osaka

°F

Osaka temperature yesterday

Maximum temperature yesterday: 64 °F (at 1:30 PM)
Minimum temperature yesterday: 50 °F (at 10:30 PM)
Average temperature yesterday: 56 °F

Past Weeks' High & Low Weather Summary

 TemperatureHumidityPressure
High72 °F (Apr 17, 1:00 PM)94% (Apr 10, 4:00 AM)30.18 "Hg (Apr 10, 4:00 AM)
Low43 °F (Apr 5, 8:30 PM)21% (Apr 12, 5:00 PM)29.83 "Hg (Apr 6, 2:00 AM)
Average55 °F61%30.01 "Hg
* Reported Apr 5 3:00 AM — Apr 20 3:30 AM, Osaka, Weather by CustomWeather, © 2014

Note: Actual official high and low records may vary slightly from our data, if they occured in-between our weather recording intervals... More about our weather records

Advertising

Historic Weather Conditions — Data for Previous 24 hours

 ConditionsComfort  
Time TempWeatherWind HumidityBarometerVisibility
3:30 AM
Apr 20
50 °FPassing clouds.9 mph67%30.12 "HgN/A
3:00 AM50 °FPassing clouds.9 mph67%30.09 "HgN/A
2:30 AM50 °FPassing clouds.8 mph67%30.12 "HgN/A
2:00 AM50 °FPassing clouds.6 mph67%30.12 "HgN/A
1:30 AM48 °FPassing clouds.7 mph71%30.12 "HgN/A
1:00 AM50 °FPassing clouds.6 mph62%30.12 "HgN/A
12:30 AM50 °FClear.10 mph62%30.12 "Hg10 mi
12:00 AM50 °FClear.14 mph62%30.12 "Hg10 mi
11:30 PM
Apr 19
50 °FClear.14 mph62%30.15 "Hg10 mi
11:00 PM50 °FClear.16 mph62%30.12 "Hg10 mi
10:30 PM50 °FClear.17 mph58%30.12 "Hg10 mi
10:00 PM52 °FClear.22 mph54%30.12 "Hg10 mi
9:30 PM52 °FClear.23 mph54%30.12 "Hg10 mi
9:00 PM52 °FClear.22 mph54%30.12 "Hg10 mi
8:30 PM52 °FClear.22 mph50%30.12 "Hg10 mi
8:00 PM54 °FClear.21 mph44%30.12 "Hg10 mi
7:30 PM54 °FClear.22 mph47%30.09 "Hg10 mi
7:00 PM54 °FClear.22 mph44%30.09 "Hg10 mi
6:30 PM55 °FSunny.20 mph47%30.09 "Hg10 mi
6:00 PM55 °FSunny.22 mph47%30.09 "Hg10 mi
5:30 PM57 °FSunny.24 mph41%30.07 "Hg10 mi
5:00 PM57 °FSunny.24 mph44%30.04 "Hg10 mi
4:30 PM61 °FSunny.14 mph48%30.04 "Hg10 mi
4:00 PM63 °FPassing clouds.7 mph34%30.04 "HgN/A
3:30 PM63 °FSunny.5 mph39%30.04 "Hg10 mi
3:00 PM63 °FSunny.5 mph42%30.04 "Hg10 mi
2:30 PM64 °FPassing clouds.9 mph32%30.04 "HgN/A
2:00 PM64 °FPassing clouds.6 mph34%30.04 "HgN/A
1:30 PM64 °FPassing clouds.6 mph32%30.07 "HgN/A
1:00 PM63 °FSunny.8 mph37%30.07 "Hg10 mi
12:30 PM61 °FPassing clouds.7 mph36%30.07 "HgN/A
12:00 PM61 °FSunny.7 mph34%30.07 "Hg10 mi
11:30 AM61 °FPassing clouds.7 mph34%30.07 "HgN/A
11:00 AM61 °FPassing clouds.12 mph36%30.07 "HgN/A
10:30 AM59 °FSunny.13 mph39%30.09 "Hg10 mi
10:00 AM59 °FSunny.13 mph39%30.09 "Hg10 mi
9:30 AM57 °FSunny.15 mph41%30.09 "Hg10 mi
9:00 AM57 °FSunny.15 mph44%30.09 "Hg10 mi
8:30 AM55 °FSunny.13 mph51%30.09 "Hg10 mi
8:00 AM55 °FPassing clouds.16 mph47%30.09 "HgN/A
7:30 AM55 °FPassing clouds.15 mph51%30.09 "HgN/A
7:00 AM54 °FPassing clouds.16 mph54%30.09 "HgN/A
6:30 AM54 °FPassing clouds.13 mph58%30.07 "HgN/A
6:00 AM52 °FPassing clouds.10 mph62%30.07 "HgN/A
5:30 AM52 °FScattered clouds.14 mph62%30.04 "HgN/A
5:00 AM52 °FPassing clouds.10 mph62%30.04 "HgN/A
4:30 AM54 °FPassing clouds.14 mph63%30.01 "HgN/A
4:00 AM54 °FPassing clouds.14 mph67%30.01 "HgN/A
Weather by CustomWeather, © 2014

See weather overview